User: anonymous   Login
Location: Plymouth
(43.7570°N, 71.6890°W)
Time: 10:40:10
(UTC-04:00)
Language:

Cosmos 2016 Rocket - Orbit

View from above orbital plane
View from above orbital plane
View from above satellite
View from above satellite

Ground track
Ground track

The orbit data is extracted from the following two-line orbital elements,

1 19922U 89028B   15240.51918991  .00000021  00000-0  60786-5 0  9990
2 19922 082.9603 195.3735 0035114 291.8178 205.4598 13.77152384326573
Epoch (UTC): 28 August 2015 12:27:38
Eccentricity: 0.0035114
inclination: 82.9603°
perigee height: 948 km
apogee height: 1000 km
right ascension of ascending node: 195.3735°
argument of perigee: 291.8178°
revolutions per day: 13.77152384
mean anomaly at epoch: 205.4598°
orbit number at epoch: 32657

The dashed part of the orbit path shows where the satellite is in the earth's shadow,  

DLR